When you browse on this site, cookies collect data to enhance your experience and personalize the content and advertising you see.
Visit our Privacy Policy to learn more. By continuing to use the site, you agree to this use of cookies and data.
  • Em Portugal
  • Lista de países
  • Para 7 dias
  • Temperatura da água
  • Mapas de satélite
  • Mapa do tempo
  • Widgets de tempo
  • user-avatar
    Iniciar Sessão

    Previsão horária em Schigrovskiy 1-y

    Hoje, 21 Março, Quinta-feira

    Tempo Temperatura Precipitação Vento Pressão Humidade
    00:00 -3°C° 0 mm 2 m/s 750 mmHg 89%
    01:00 -3°C° 0 mm 2 m/s 750 mmHg 90%
    02:00 -3°C° 0 mm 2 m/s 750 mmHg 90%
    03:00 -2°C° 0 mm 2 m/s 749 mmHg 89%
    04:00 -2°C° 0 mm 2 m/s 749 mmHg 89%
    05:00 -2°C° 0 mm 2 m/s 749 mmHg 89%
    06:00 -1°C° 0 mm 2 m/s 748 mmHg 87%
    07:00 -1°C° 0 mm 3 m/s 748 mmHg 86%
    08:00 -1°C° 0 mm 3 m/s 748 mmHg 84%
    09:00 0°C° 0.2 mm 3 m/s 747 mmHg 87%
    10:00 -1°C° 0.2 mm 4 m/s 747 mmHg 89%
    11:00 -1°C° 0.2 mm 4 m/s 747 mmHg 92%
    12:00 +1°C° 0.1 mm 3 m/s 747 mmHg 92%
    13:00 +1°C° 0.1 mm 3 m/s 747 mmHg 92%
    14:00 +1°C° 0 mm 3 m/s 747 mmHg 91%
    15:00 +1°C° 0 mm 3 m/s 747 mmHg 91%
    16:00 +2°C° 0 mm 2 m/s 747 mmHg 90%
    17:00 +2°C° 0 mm 2 m/s 747 mmHg 90%
    18:00 +1°C° 0 mm 2 m/s 747 mmHg 90%
    19:00 +1°C° 0 mm 2 m/s 748 mmHg 91%
    20:00 -1°C° 0 mm 2 m/s 748 mmHg 91%
    21:00 -1°C° 0 mm 2 m/s 748 mmHg 91%
    22:00 -1°C° 0 mm 2 m/s 748 mmHg 91%
    23:00 -1°C° 0 mm 2 m/s 748 mmHg 91%

    Amanhã, 22 Março, Sexta-feira

    Tempo Temperatura Precipitação Vento Pressão Humidade
    00:00 +1°C° 0 mm 2 m/s 747 mmHg 90%
    01:00 +1°C° 0 mm 2 m/s 747 mmHg 89%
    02:00 0°C° 0 mm 3 m/s 747 mmHg 88%
    03:00 0°C° 0 mm 3 m/s 746 mmHg 89%
    04:00 0°C° 0 mm 3 m/s 745 mmHg 89%
    05:00 -2°C° 0 mm 4 m/s 745 mmHg 90%
    06:00 -1°C° 0.4 mm 4 m/s 744 mmHg 90%
    07:00 -1°C° 0.4 mm 5 m/s 743 mmHg 90%
    08:00 -1°C° 0.4 mm 6 m/s 742 mmHg 89%
    09:00 -1°C° 0.7 mm 6 m/s 741 mmHg 92%
    10:00 -1°C° 0.7 mm 6 m/s 740 mmHg 94%
    11:00 +1°C° 0.7 mm 6 m/s 739 mmHg 96%
    12:00 +1°C° 0.5 mm 6 m/s 739 mmHg 91%
    13:00 0°C° 0.5 mm 7 m/s 739 mmHg 85%
    14:00 0°C° 0.5 mm 7 m/s 739 mmHg 80%
    15:00 0°C° 0.1 mm 7 m/s 739 mmHg 77%
    16:00 -1°C° 0.1 mm 7 m/s 740 mmHg 75%
    17:00 -2°C° 0.1 mm 7 m/s 741 mmHg 72%
    18:00 -2°C° 0 mm 7 m/s 741 mmHg 73%
    19:00 -3°C° 0 mm 7 m/s 741 mmHg 75%
    20:00 -3°C° 0 mm 6 m/s 742 mmHg 77%
    21:00 -3°C° 0 mm 6 m/s 741 mmHg 78%
    22:00 -3°C° 0 mm 6 m/s 741 mmHg 80%
    23:00 -3°C° 0 mm 6 m/s 741 mmHg 82%

    Depois de amanhã, 23 Março, Sábado

    Tempo Temperatura Precipitação Vento Pressão Humidade
    00:00 -4°C° 0 mm 6 m/s 741 mmHg 82%
    01:00 -4°C° 0 mm 7 m/s 741 mmHg 82%
    02:00 -4°C° 0 mm 7 m/s 741 mmHg 83%
    03:00 -3°C° 0.2 mm 7 m/s 741 mmHg 84%
    04:00 -3°C° 0.2 mm 7 m/s 741 mmHg 84%
    05:00 -3°C° 0.2 mm 7 m/s 741 mmHg 85%
    06:00 -2°C° 0.1 mm 7 m/s 742 mmHg 86%
    07:00 -2°C° 0.1 mm 7 m/s 743 mmHg 86%
    08:00 -2°C° 0.1 mm 7 m/s 744 mmHg 87%
    09:00 -1°C° 0 mm 7 m/s 745 mmHg 85%
    10:00 -1°C° 0 mm 6 m/s 745 mmHg 83%
    11:00 -1°C° 0 mm 6 m/s 746 mmHg 81%
    12:00 -1°C° 0 mm 6 m/s 746 mmHg 80%
    13:00 -1°C° 0 mm 6 m/s 747 mmHg 78%
    14:00 0°C° 0 mm 5 m/s 747 mmHg 77%
    15:00 -1°C° 0 mm 4 m/s 747 mmHg 78%
    16:00 -1°C° 0 mm 4 m/s 747 mmHg 79%
    17:00 0°C° 0 mm 3 m/s 748 mmHg 80%
    18:00 -1°C° 0 mm 3 m/s 748 mmHg 82%
    19:00 -1°C° 0 mm 2 m/s 748 mmHg 84%
    20:00 0°C° 0 mm 1 m/s 748 mmHg 86%
    21:00 0°C° 0 mm 1 m/s 748 mmHg 85%
    22:00 0°C° 0 mm 1 m/s 748 mmHg 84%
    23:00 0°C° 0 mm 1 m/s 748 mmHg 83%

    24 Março, Domingo

    Tempo Temperatura Precipitação Vento Pressão Humidade
    00:00 0°C° 0 mm 1 m/s 747 mmHg 83%
    01:00 -1°C° 0 mm 1 m/s 747 mmHg 84%
    02:00 -1°C° 0 mm 1 m/s 747 mmHg 84%
    03:00 -3°C° 0 mm 2 m/s 746 mmHg 84%
    04:00 -3°C° 0 mm 2 m/s 746 mmHg 83%
    05:00 -3°C° 0 mm 2 m/s 746 mmHg 83%
    06:00 -2°C° 0 mm 3 m/s 745 mmHg 82%
    07:00 -2°C° 0 mm 3 m/s 745 mmHg 80%
    08:00 -2°C° 0 mm 4 m/s 744 mmHg 79%
    09:00 -2°C° 0.1 mm 4 m/s 744 mmHg 80%
    10:00 -1°C° 0.1 mm 4 m/s 743 mmHg 82%
    11:00 -1°C° 0.1 mm 4 m/s 743 mmHg 83%
    12:00 0°C° 0.2 mm 4 m/s 742 mmHg 84%
    13:00 0°C° 0.2 mm 4 m/s 742 mmHg 85%
    14:00 0°C° 0.2 mm 4 m/s 741 mmHg 86%
    15:00 0°C° 0 mm 4 m/s 741 mmHg 87%
    16:00 +1°C° 0 mm 3 m/s 741 mmHg 88%
    17:00 +2°C° 0 mm 2 m/s 741 mmHg 90%
    18:00 +2°C° 0.1 mm 2 m/s 741 mmHg 88%
    19:00 +1°C° 0.1 mm 3 m/s 741 mmHg 87%
    20:00 +1°C° 0.1 mm 3 m/s 741 mmHg 86%
    21:00 0°C° 0 mm 3 m/s 741 mmHg 85%
    22:00 -1°C° 0 mm 3 m/s 741 mmHg 85%
    23:00 -1°C° 0 mm 3 m/s 741 mmHg 84%

    25 Março, Segunda-feira

    Tempo Temperatura Precipitação Vento Pressão Humidade
    00:00 -2°C° 0 mm 3 m/s 741 mmHg 85%
    01:00 -2°C° 0 mm 3 m/s 741 mmHg 86%
    02:00 -4°C° 0 mm 3 m/s 741 mmHg 87%
    03:00 -4°C° 0 mm 3 m/s 741 mmHg 87%
    04:00 -4°C° 0 mm 3 m/s 741 mmHg 87%
    05:00 -4°C° 0 mm 3 m/s 741 mmHg 87%
    06:00 -3°C° 0 mm 4 m/s 741 mmHg 83%
    07:00 -3°C° 0 mm 4 m/s 742 mmHg 79%
    08:00 -2°C° 0 mm 5 m/s 742 mmHg 75%
    09:00 -2°C° 0 mm 5 m/s 742 mmHg 70%
    10:00 -1°C° 0 mm 5 m/s 742 mmHg 64%
    11:00 0°C° 0 mm 5 m/s 742 mmHg 59%
    12:00 0°C° 0 mm 5 m/s 742 mmHg 58%
    13:00 +1°C° 0 mm 4 m/s 742 mmHg 56%
    14:00 +1°C° 0 mm 4 m/s 742 mmHg 55%
    15:00 +1°C° 0 mm 3 m/s 742 mmHg 59%
    16:00 +1°C° 0 mm 3 m/s 742 mmHg 63%
    17:00 +2°C° 0 mm 2 m/s 742 mmHg 67%
    18:00 +1°C° 0 mm 2 m/s 742 mmHg 70%
    19:00 -1°C° 0 mm 2 m/s 743 mmHg 72%
    20:00 -2°C° 0 mm 2 m/s 743 mmHg 75%
    21:00 -2°C° 0 mm 2 m/s 743 mmHg 75%
    22:00 -2°C° 0 mm 2 m/s 743 mmHg 76%
    23:00 -2°C° 0 mm 2 m/s 743 mmHg 76%

    26 Março, Terça-feira

    Tempo Temperatura Precipitação Vento Pressão Humidade
    00:00 -2°C° 0 mm 2 m/s 743 mmHg 76%
    01:00 -2°C° 0 mm 2 m/s 743 mmHg 76%
    02:00 -2°C° 0 mm 2 m/s 743 mmHg 76%
    03:00 -2°C° 0 mm 2 m/s 743 mmHg 75%
    04:00 -2°C° 0 mm 2 m/s 743 mmHg 75%
    05:00 -2°C° 0 mm 3 m/s 743 mmHg 75%
    06:00 -1°C° 0 mm 3 m/s 743 mmHg 70%
    07:00 -1°C° 0 mm 3 m/s 743 mmHg 66%
    08:00 -1°C° 0 mm 4 m/s 743 mmHg 61%
    09:00 0°C° 0 mm 4 m/s 743 mmHg 56%
    10:00 +3°C° 0 mm 4 m/s 743 mmHg 52%
    11:00 +3°C° 0 mm 5 m/s 743 mmHg 47%
    12:00 +3°C° 0 mm 5 m/s 743 mmHg 47%
    13:00 +3°C° 0 mm 5 m/s 743 mmHg 48%
    14:00 +5°C° 0 mm 5 m/s 743 mmHg 48%
    15:00 +4°C° 0.4 mm 4 m/s 742 mmHg 60%
    16:00 +1°C° 0.4 mm 4 m/s 742 mmHg 72%
    17:00 +1°C° 0.4 mm 3 m/s 742 mmHg 84%
    18:00 0°C° 0 mm 3 m/s 743 mmHg 85%
    19:00 -1°C° 0 mm 2 m/s 743 mmHg 85%
    20:00 -2°C° 0 mm 2 m/s 743 mmHg 85%
    21:00 -3°C° 0 mm 2 m/s 743 mmHg 84%
    22:00 -3°C° 0 mm 2 m/s 742 mmHg 82%
    23:00 -3°C° 0 mm 2 m/s 742 mmHg 81%
    Mostrar mais